Torna al catalogo

BREEZE-M R/B

AttivoMEO
NORAD 43433·ROCKET BODY·🇷🇺 Russia

Lanciato Apr 18, 2018 da Baikonur Cosmodrome

Loading…

Prossimi Passaggi (prossime 24 ore)

TLE

AggiornatoSource: Space-Track

Epoca: Sep 14, 2026, 16:09 UTC

1 43433U 18037B   26257.67345645 -.00000193  00000-0  00000-0 0  9992
2 43433   8.3943  70.2609 0671863  30.5943 333.3064  0.90514235 28017

Traccia BREEZE-M R/B in tempo reale con AllMySat

Download on the App Store